Miles City, MT

6:43 AM MST on January 22, 2017 (GMT -0700)
Wiley

Weather History for KMLS - July, 2013

Change the Weather History Date:

Thursday, July 25, 2013

  Actual Average Record
Temperature  
Mean Temperature 70 °F 75 °F  
Max Temperature 81 °F 90 °F 102 °F (1956)
Min Temperature 58 °F 61 °F 51 °F (1973)
Degree Days  
Heating Degree Days 0 0  
Month to date heating degree days 0 10  
Since 1 June heating degree days 59 99  
Since 1 July heating degree days 0 10  
Cooling Degree Days 5 11  
Month to date cooling degree days 289 225  
Year to date cooling degree days 395 352  
Since 1 June cooling degree days 382 332  
Growing Degree Days 20 (Base 50)    
Moisture  
Dew Point 53 °F    
Average Humidity 63    
Maximum Humidity 90    
Minimum Humidity 36    
Precipitation  
Precipitation 0.00 in 0.05 in 2.12 in (1979)
Month to date precipitation 0.62 1.36  
Year to date precipitation 11.65 8.57  
Sea Level Pressure  
Sea Level Pressure 30.10 in    
Wind  
Wind Speed 10 mph (NNE)    
Max Wind Speed 18 mph    
Max Gust Speed 22 mph    
Visibility 10 miles    
Events      
T = Trace of Precipitation, MM = Missing Value Source: NWS Daily Summary

Daily Weather History Graph

Daily Weather History Graph

Search for Another Location

Airport or City:

Trip Planner

Search our weather history database for the weather conditions in past years. The results will help you decide how hot, cold, wet, or windy it might be!

Date:

Astronomy

Jul. 25, 2013 Rise Set
Actual Time 5:36 AM MDT 8:42 PM MDT
Civil Twilight 5:00 AM MDT 9:18 PM MDT
Nautical Twilight 4:14 AM MDT 10:04 PM MDT
Astronomical Twilight 3:17 AM MDT 11:00 PM MDT
Moon 10:06 PM MDT (7/25) 9:25 AM MDT (7/25)
Length of Visible Light 16h 17m
Length of Day
15h 05m
Waning Gibbous, 88% of the Moon is Illuminated
Jul 25
Waning Gibbous
Jul 29
Last Quarter
Aug 6
New
Aug 14
First Quarter
Aug 20
Full

Hourly Weather History & Observations

Time (MDT) Temp. Dew Point Humidity Pressure Visibility Wind Dir Wind Speed Gust Speed Precip Events Conditions
12:53 AM 66.9 °F 55.0 °F 66% 29.94 in 10.0 mi NNE 13.8 mph - N/A   Partly Cloudy
1:53 AM 66.0 °F 55.0 °F 68% 30.01 in 10.0 mi North 8.1 mph - N/A   Mostly Cloudy
2:53 AM 64.9 °F 55.9 °F 73% 30.04 in 10.0 mi NNE 8.1 mph - 0.01 in   Overcast
3:53 AM 63.0 °F 55.9 °F 78% 29.99 in 10.0 mi SSE 3.5 mph - 0.01 in   Partly Cloudy
4:53 AM 61.0 °F 57.0 °F 87% 30.02 in 10.0 mi North 6.9 mph - N/A   Clear
5:53 AM 59.0 °F 55.9 °F 90% 30.05 in 10.0 mi NW 8.1 mph - N/A   Clear
6:53 AM 62.1 °F 57.9 °F 86% 30.08 in 10.0 mi NW 11.5 mph - N/A   Partly Cloudy
7:53 AM 66.0 °F 59.0 °F 78% 30.10 in 10.0 mi NW 11.5 mph - N/A   Partly Cloudy
8:53 AM 70.0 °F 57.9 °F 65% 30.13 in 10.0 mi North 11.5 mph - N/A   Scattered Clouds
9:53 AM 72.0 °F 57.0 °F 59% 30.13 in 10.0 mi NNE 6.9 mph - N/A   Clear
10:53 AM 75.0 °F 55.0 °F 50% 30.14 in 10.0 mi NE 8.1 mph - N/A   Clear
11:53 AM 77.0 °F 54.0 °F 45% 30.13 in 10.0 mi Variable 4.6 mph 16.1 mph N/A   Scattered Clouds
12:53 PM 79.0 °F 53.1 °F 40% 30.12 in 10.0 mi North 12.7 mph - N/A   Partly Cloudy
1:53 PM 80.1 °F 52.0 °F 38% 30.11 in 10.0 mi NNE 15.0 mph 31.1 mph N/A   Partly Cloudy
2:53 PM 78.1 °F 53.1 °F 42% 30.12 in 10.0 mi North 6.9 mph 20.7 mph N/A   Mostly Cloudy
3:53 PM 78.1 °F 53.1 °F 42% 30.13 in 10.0 mi North 17.3 mph - N/A   Mostly Cloudy
4:53 PM 80.1 °F 52.0 °F 38% 30.12 in 10.0 mi North 18.4 mph 21.9 mph N/A   Partly Cloudy
7:53 PM 73.0 °F 50.0 °F 44% 30.14 in 10.0 mi NE 9.2 mph - N/A   Clear
8:53 PM 68.0 °F 46.0 °F 45% 30.17 in 10.0 mi NE 13.8 mph - N/A   Clear
9:53 PM 64.9 °F 44.1 °F 47% 30.19 in 10.0 mi NE 11.5 mph - N/A   Partly Cloudy
10:53 PM 63.0 °F 45.0 °F 52% 30.20 in 10.0 mi NE 15.0 mph - N/A   Overcast
11:53 PM 60.1 °F 44.1 °F 55% 30.22 in 10.0 mi ENE 11.5 mph - N/A   Clear